| time (UTC) | temp F | wind direction | speed MPH | gust MPH | rain 1hr in | rain 24hr in | rain mn in | humidity % | barometer mb |
| 20260903003306 | 74 | 82 | 0.0 | 0.0 | 0.00 | 0.00 | 0.00 | 54 | 1013.8 |
| 20260903002806 | 74 | 82 | 0.0 | 0.0 | 0.00 | 0.00 | 0.00 | 56 | 1013.8 |
| 20260903002306 | 74 | 89 | 0.0 | 0.0 | 0.00 | 0.00 | 0.00 | 56 | 1013.9 |
| 20260903001806 | 74 | 91 | 0.0 | 0.0 | 0.00 | 0.00 | 0.00 | 57 | 1014.0 |
| 20260903001307 | 74 | 56 | 0.0 | 0.0 | 0.00 | 0.00 | 0.00 | 57 | 1014.0 |
| 20260903000806 | 74 | 65 | 0.0 | 0.0 | 0.00 | 0.00 | 0.00 | 58 | 1014.0 |
| 20260903000306 | 74 | 65 | 0.0 | 0.0 | 0.00 | 0.00 | 0.00 | 57 | 1014.0 |
| 20260902235806 | 74 | 61 | 0.0 | 0.0 | 0.00 | 0.00 | 0.00 | 57 | 1014.1 |
| 20260902235306 | 74 | 356 | 0.0 | 0.0 | 0.00 | 0.00 | 0.00 | 57 | 1014.2 |
| 20260902234306 | 75 | 57 | 0.0 | 0.0 | 0.00 | 0.00 | 0.00 | 56 | 1014.2 |
| 20260902233806 | 75 | 53 | 0.0 | 0.0 | 0.00 | 0.00 | 0.00 | 56 | 1014.2 |
| 20260902233306 | 75 | 35 | 0.0 | 0.0 | 0.00 | 0.00 | 0.00 | 56 | 1014.3 |
| 20260902232806 | 75 | 19 | 0.0 | 0.0 | 0.00 | 0.00 | 0.00 | 56 | 1014.3 |
| 20260902232306 | 75 | 23 | 0.0 | 0.0 | 0.00 | 0.00 | 0.00 | 55 | 1014.3 |
| 20260902231806 | 75 | 56 | 0.0 | 0.0 | 0.00 | 0.00 | 0.00 | 55 | 1014.3 |
| 20260902231306 | 75 | 49 | 0.0 | 0.0 | 0.00 | 0.00 | 0.00 | 55 | 1014.4 |
| 20260902230306 | 76 | 56 | 0.0 | 0.0 | 0.00 | 0.00 | 0.00 | 55 | 1014.4 |
| 20260902225806 | 76 | 34 | 0.0 | 0.0 | 0.00 | 0.00 | 0.00 | 55 | 1014.5 |
| 20260902225306 | 76 | 7 | 0.0 | 0.0 | 0.00 | 0.00 | 0.00 | 56 | 1014.5 |
| 20260902224807 | 76 | 349 | 0.0 | 0.0 | 0.00 | 0.00 | 0.00 | 56 | 1014.5 |
| 20260902224306 | 76 | 143 | 0.0 | 0.0 | 0.00 | 0.00 | 0.00 | 56 | 1014.5 |
| 20260902223806 | 76 | 67 | 0.0 | 0.0 | 0.00 | 0.00 | 0.00 | 56 | 1014.6 |
| 20260902222806 | 76 | 110 | 0.0 | 0.0 | 0.00 | 0.00 | 0.00 | 56 | 1014.6 |
| 20260902222306 | 76 | 120 | 0.0 | 0.0 | 0.00 | 0.00 | 0.00 | 56 | 1014.6 |
| 20260902221806 | 76 | 65 | 0.0 | 0.0 | 0.00 | 0.00 | 0.00 | 56 | 1014.6 |
| 20260902221306 | 76 | 54 | 0.0 | 0.0 | 0.00 | 0.00 | 0.00 | 55 | 1014.6 |
| 20260902220826 | 76 | 61 | 0.0 | 0.0 | 0.00 | 0.00 | 0.00 | 54 | 1014.7 |
| 20260902220306 | 76 | 95 | 0.0 | 0.0 | 0.00 | 0.00 | 0.00 | 54 | 1014.6 |
| 20260902215806 | 77 | 52 | 0.0 | 0.0 | 0.00 | 0.00 | 0.00 | 53 | 1014.7 |
| 20260902215306 | 77 | 77 | 0.0 | 0.0 | 0.00 | 0.00 | 0.00 | 52 | 1014.7 |
| 20260902214806 | 77 | 133 | 0.0 | 0.0 | 0.00 | 0.00 | 0.00 | 51 | 1014.7 |
| 20260902213306 | 77 | 33 | 0.0 | 0.0 | 0.00 | 0.00 | 0.00 | 51 | 1014.7 |
| 20260902212805 | 77 | 181 | 0.0 | 0.0 | 0.00 | 0.00 | 0.00 | 51 | 1014.6 |
| 20260902212307 | 77 | 182 | 0.0 | 0.0 | 0.00 | 0.00 | 0.00 | 50 | 1014.7 |
| 20260902211805 | 77 | 161 | 0.0 | 0.0 | 0.00 | 0.00 | 0.00 | 50 | 1014.7 |
| 20260902211306 | 78 | 164 | 0.0 | 0.0 | 0.00 | 0.00 | 0.00 | 49 | 1014.7 |
| 20260902210806 | 78 | 130 | 0.0 | 0.0 | 0.00 | 0.00 | 0.00 | 47 | 1014.8 |
| 20260902210308 | 78 | 130 | 0.0 | 0.0 | 0.00 | 0.00 | 0.00 | 46 | 1014.8 |
| 20260902205805 | 78 | 130 | 0.0 | 0.0 | 0.00 | 0.00 | 0.00 | 46 | 1014.8 |
| 20260902205307 | 78 | 30 | 0.0 | 0.0 | 0.00 | 0.00 | 0.00 | 46 | 1014.7 |
| 20260902204806 | 78 | 148 | 0.0 | 0.0 | 0.00 | 0.00 | 0.00 | 46 | 1014.7 |
| 20260902204306 | 78 | 122 | 0.0 | 0.0 | 0.00 | 0.00 | 0.00 | 46 | 1014.7 |
| 20260902203806 | 78 | 231 | 0.0 | 0.0 | 0.00 | 0.00 | 0.00 | 47 | 1014.8 |
| 20260902203306 | 78 | 215 | 0.0 | 0.0 | 0.00 | 0.00 | 0.00 | 46 | 1014.8 |
| 20260902202806 | 78 | 235 | 0.0 | 0.0 | 0.00 | 0.00 | 0.00 | 46 | 1014.8 |
| 20260902202306 | 78 | 218 | 0.0 | 0.0 | 0.00 | 0.00 | 0.00 | 47 | 1014.7 |
| 20260902201305 | 78 | 348 | 0.0 | 0.0 | 0.00 | 0.00 | 0.00 | 51 | 1014.8 |
| 20260902200806 | 78 | 180 | 0.0 | 0.0 | 0.00 | 0.00 | 0.00 | 50 | 1014.8 |
| 20260902200305 | 78 | 122 | 0.0 | 0.0 | 0.00 | 0.00 | 0.00 | 48 | 1014.8 |
| 20260902195307 | 79 | 15 | 0.0 | 0.0 | 0.00 | 0.00 | 0.00 | 46 | 1014.8 |
| 20260902194806 | 79 | 32 | 0.0 | 0.0 | 0.00 | 0.00 | 0.00 | 45 | 1014.8 |
| 20260902194305 | 79 | 204 | 0.0 | 0.0 | 0.00 | 0.00 | 0.00 | 45 | 1014.8 |
| 20260902193806 | 79 | 229 | 0.0 | 0.0 | 0.00 | 0.00 | 0.00 | 46 | 1014.8 |
| 20260902193305 | 79 | 220 | 0.0 | 0.0 | 0.00 | 0.00 | 0.00 | 46 | 1014.8 |
| 20260902192307 | 80 | 35 | 0.0 | 0.0 | 0.00 | 0.00 | 0.00 | 46 | 1014.8 |
| 20260902191806 | 80 | 58 | 0.0 | 0.0 | 0.00 | 0.00 | 0.00 | 45 | 1014.7 |
| 20260902191305 | 80 | 154 | 0.0 | 0.0 | 0.00 | 0.00 | 0.00 | 44 | 1014.7 |
| 20260902190806 | 80 | 130 | 0.0 | 0.0 | 0.00 | 0.00 | 0.00 | 44 | 1014.6 |
| 20260902190305 | 81 | 50 | 0.0 | 0.0 | 0.00 | 0.00 | 0.00 | 43 | 1014.6 |
| 20260902185805 | 81 | 11 | 0.0 | 0.0 | 0.00 | 0.00 | 0.00 | 42 | 1014.6 |
| 20260902185307 | 81 | 345 | 0.0 | 0.0 | 0.00 | 0.00 | 0.00 | 41 | 1014.6 |
| 20260902184806 | 81 | 18 | 0.0 | 0.0 | 0.00 | 0.00 | 0.00 | 40 | 1014.5 |
| 20260902184306 | 81 | 28 | 0.0 | 0.0 | 0.00 | 0.00 | 0.00 | 40 | 1014.4 |
| 20260902183808 | 81 | 108 | 0.0 | 0.0 | 0.00 | 0.00 | 0.00 | 39 | 1014.3 |
| 20260902183306 | 81 | 9 | 0.0 | 0.0 | 0.00 | 0.00 | 0.00 | 39 | 1014.3 |
| 20260902182806 | 82 | 68 | 0.0 | 0.0 | 0.00 | 0.00 | 0.00 | 39 | 1014.2 |
| 20260902182306 | 82 | 111 | 0.0 | 0.0 | 0.00 | 0.00 | 0.00 | 40 | 1014.2 |
| 20260902181807 | 82 | 205 | 0.0 | 0.0 | 0.00 | 0.00 | 0.00 | 40 | 1014.2 |
| 20260902181305 | 82 | 359 | 0.0 | 0.0 | 0.00 | 0.00 | 0.00 | 40 | 1014.1 |
| 20260902180806 | 82 | 68 | 0.0 | 0.0 | 0.00 | 0.00 | 0.00 | 39 | 1014.0 |
| 20260902180306 | 83 | 5 | 0.0 | 0.0 | 0.00 | 0.00 | 0.00 | 39 | 1014.0 |
| 20260902175805 | 83 | 114 | 0.0 | 0.0 | 0.00 | 0.00 | 0.00 | 38 | 1013.9 |
| 20260902175307 | 83 | 71 | 0.0 | 0.0 | 0.00 | 0.00 | 0.00 | 37 | 1013.8 |
| 20260902174806 | 83 | 66 | 0.0 | 0.0 | 0.00 | 0.00 | 0.00 | 36 | 1013.8 |
| 20260902174305 | 83 | 64 | 0.0 | 0.0 | 0.00 | 0.00 | 0.00 | 35 | 1013.7 |
| 20260902173805 | 84 | 20 | 0.0 | 0.0 | 0.00 | 0.00 | 0.00 | 34 | 1013.7 |
| 20260902173305 | 84 | 223 | 0.0 | 0.0 | 0.00 | 0.00 | 0.00 | 37 | 1013.6 |
| 20260902172806 | 84 | 47 | 0.0 | 0.0 | 0.00 | 0.00 | 0.00 | 38 | 1013.6 |
| 20260902172308 | 85 | 42 | 0.0 | 0.0 | 0.00 | 0.00 | 0.00 | 37 | 1013.6 |
| 20260902171306 | 85 | 41 | 0.0 | 0.0 | 0.00 | 0.00 | 0.00 | 36 | 1013.7 |
| 20260902170805 | 85 | 44 | 0.0 | 0.0 | 0.00 | 0.00 | 0.00 | 35 | 1013.6 |
| 20260902165805 | 87 | 112 | 0.0 | 0.0 | 0.00 | 0.00 | 0.00 | 33 | 1013.6 |
| 20260902164305 | 89 | 29 | 0.0 | 0.0 | 0.00 | 0.00 | 0.00 | 31 | 1013.6 |
| 20260902163306 | 89 | 30 | 0.0 | 0.0 | 0.00 | 0.00 | 0.00 | 25 | 1013.6 |
| 20260902162806 | 90 | 2 | 0.0 | 0.0 | 0.00 | 0.00 | 0.00 | 25 | 1013.5 |
| 20260902161805 | 90 | 90 | 0.0 | 0.0 | 0.00 | 0.00 | 0.00 | 25 | 1013.5 |
| 20260902161305 | 91 | 5 | 0.0 | 0.0 | 0.00 | 0.00 | 0.00 | 23 | 1013.5 |
| 20260902160807 | 91 | 39 | 0.0 | 0.0 | 0.00 | 0.00 | 0.00 | 24 | 1013.5 |
| 20260902160305 | 91 | 131 | 0.0 | 0.0 | 0.00 | 0.00 | 0.00 | 24 | 1013.4 |
| 20260902155806 | 91 | 43 | 0.0 | 0.0 | 0.00 | 0.00 | 0.00 | 24 | 1013.4 |
| 20260902155307 | 92 | 40 | 0.0 | 0.0 | 0.00 | 0.00 | 0.00 | 24 | 1013.3 |
| 20260902154306 | 93 | 17 | 0.0 | 0.0 | 0.00 | 0.00 | 0.00 | 23 | 1013.4 |
| 20260902153806 | 93 | 234 | 0.0 | 0.0 | 0.00 | 0.00 | 0.00 | 23 | 1013.4 |
| 20260902152805 | 93 | 34 | 0.0 | 0.0 | 0.00 | 0.00 | 0.00 | 23 | 1013.4 |
| 20260902152307 | 93 | 121 | 0.0 | 0.0 | 0.00 | 0.00 | 0.00 | 23 | 1013.5 |
| 20260902151805 | 93 | 28 | 0.0 | 0.0 | 0.00 | 0.00 | 0.00 | 23 | 1013.5 |
| 20260902151305 | 93 | 34 | 0.0 | 0.0 | 0.00 | 0.00 | 0.00 | 22 | 1013.5 |
| 20260902150805 | 93 | 50 | 0.0 | 0.0 | 0.00 | 0.00 | 0.00 | 22 | 1013.6 |
| 20260902150315 | 93 | 68 | 0.0 | 0.0 | 0.00 | 0.00 | 0.00 | 22 | 1013.5 |
| 20260902145805 | 93 | 48 | 0.0 | 0.0 | 0.00 | 0.00 | 0.00 | 22 | 1013.6 |
| 20260902145306 | 94 | 53 | 0.0 | 0.0 | 0.00 | 0.00 | 0.00 | 22 | 1013.6 |
| 20260902144813 | 94 | 29 | 0.0 | 0.0 | 0.00 | 0.00 | 0.00 | 21 | 1013.6 |
| 20260902142805 | 94 | 134 | 0.0 | 0.0 | 0.00 | 0.00 | 0.00 | 21 | 1013.6 |
| 20260902140806 | 96 | 83 | 0.0 | 0.0 | 0.00 | 0.00 | 0.00 | 20 | 1013.5 |
| 20260902140306 | 96 | 243 | 0.0 | 0.0 | 0.00 | 0.00 | 0.00 | 21 | 1013.6 |
| 20260902135806 | 95 | 69 | 0.0 | 0.0 | 0.00 | 0.00 | 0.00 | 21 | 1013.7 |
| 20260902135307 | 95 | 56 | 0.0 | 0.0 | 0.00 | 0.00 | 0.00 | 21 | 1013.8 |
| 20260902134805 | 95 | 95 | 0.0 | 0.0 | 0.00 | 0.00 | 0.00 | 21 | 1013.8 |
| 20260902134305 | 95 | 30 | 0.0 | 0.0 | 0.00 | 0.00 | 0.00 | 21 | 1013.9 |
| 20260902133805 | 96 | 30 | 0.0 | 0.0 | 0.00 | 0.00 | 0.00 | 21 | 1014.0 |
| 20260902133305 | 96 | 70 | 0.0 | 0.0 | 0.00 | 0.00 | 0.00 | 21 | 1013.9 |
| 20260902132306 | 96 | 99 | 0.0 | 0.0 | 0.00 | 0.00 | 0.00 | 23 | 1014.1 |
| 20260902131805 | 95 | 125 | 0.0 | 0.0 | 0.00 | 0.00 | 0.00 | 22 | 1014.1 |
| 20260902131305 | 95 | 41 | 0.0 | 0.0 | 0.00 | 0.00 | 0.00 | 22 | 1014.1 |
| 20260902130805 | 95 | 134 | 0.0 | 0.0 | 0.00 | 0.00 | 0.00 | 23 | 1014.0 |
| 20260902130304 | 96 | 23 | 0.0 | 0.0 | 0.00 | 0.00 | 0.00 | 22 | 1014.1 |
| 20260902125805 | 95 | 118 | 0.0 | 0.0 | 0.00 | 0.00 | 0.00 | 23 | 1014.2 |
| 20260902124805 | 96 | 47 | 0.0 | 0.0 | 0.00 | 0.00 | 0.00 | 24 | 1014.3 |
| 20260902124306 | 95 | 62 | 0.0 | 0.0 | 0.00 | 0.00 | 0.00 | 23 | 1014.3 |
| 20260902123805 | 95 | 36 | 0.0 | 0.0 | 0.00 | 0.00 | 0.00 | 22 | 1014.3 |
| 20260902123304 | 95 | 242 | 0.0 | 0.0 | 0.00 | 0.00 | 0.00 | 22 | 1014.3 |
| 20260902122805 | 96 | 30 | 0.0 | 0.0 | 0.00 | 0.00 | 0.00 | 22 | 1014.4 |
| 20260902122306 | 95 | 114 | 0.0 | 0.0 | 0.00 | 0.00 | 0.00 | 22 | 1014.5 |
| 20260902121805 | 95 | 33 | 0.0 | 0.0 | 0.00 | 0.00 | 0.00 | 22 | 1014.5 |
| 20260902121305 | 95 | 302 | 0.0 | 0.0 | 0.00 | 0.00 | 0.00 | 22 | 1014.6 |
| 20260902120804 | 94 | 172 | 0.0 | 0.0 | 0.00 | 0.00 | 0.00 | 23 | 1014.6 |
| 20260902120305 | 95 | 194 | 0.0 | 0.0 | 0.00 | 0.00 | 0.00 | 23 | 1014.7 |
| 20260902115805 | 94 | 164 | 0.0 | 0.0 | 0.00 | 0.00 | 0.00 | 24 | 1014.7 |
| 20260902115307 | 94 | 21 | 0.0 | 0.0 | 0.00 | 0.00 | 0.00 | 24 | 1014.8 |
| 20260902114806 | 94 | 11 | 0.0 | 0.0 | 0.00 | 0.00 | 0.00 | 23 | 1014.8 |
| 20260902114305 | 95 | 30 | 0.0 | 0.0 | 0.00 | 0.00 | 0.00 | 23 | 1014.8 |
| 20260902113805 | 95 | 288 | 0.0 | 0.0 | 0.00 | 0.00 | 0.00 | 22 | 1014.8 |
| 20260902113304 | 95 | 163 | 0.0 | 0.0 | 0.00 | 0.00 | 0.00 | 23 | 1015.0 |
| 20260902112805 | 94 | 26 | 0.0 | 0.0 | 0.00 | 0.00 | 0.00 | 23 | 1014.9 |
| 20260902112306 | 94 | 176 | 0.0 | 0.0 | 0.00 | 0.00 | 0.00 | 23 | 1015.0 |
| 20260902111804 | 94 | 169 | 0.0 | 0.0 | 0.00 | 0.00 | 0.00 | 25 | 1015.0 |
| 20260902111304 | 94 | 198 | 0.0 | 0.0 | 0.00 | 0.00 | 0.00 | 25 | 1015.0 |
| 20260902110805 | 94 | 223 | 0.0 | 0.0 | 0.00 | 0.00 | 0.00 | 25 | 1015.1 |
| 20260902105806 | 93 | 107 | 0.0 | 0.0 | 0.00 | 0.00 | 0.00 | 25 | 1015.2 |
| 20260902105306 | 93 | 100 | 0.0 | 0.0 | 0.00 | 0.00 | 0.00 | 25 | 1015.3 |
| 20260902104804 | 93 | 232 | 0.0 | 0.0 | 0.00 | 0.00 | 0.00 | 26 | 1015.5 |
| 20260902104306 | 93 | 106 | 0.0 | 0.0 | 0.00 | 0.00 | 0.00 | 25 | 1015.5 |
| 20260902103805 | 93 | 211 | 0.0 | 0.0 | 0.00 | 0.00 | 0.00 | 25 | 1015.5 |
| 20260902103304 | 93 | 309 | 0.0 | 0.0 | 0.00 | 0.00 | 0.00 | 25 | 1015.5 |
| 20260902102807 | 93 | 357 | 0.0 | 0.0 | 0.00 | 0.00 | 0.00 | 26 | 1015.6 |
| 20260902102307 | 92 | 151 | 0.0 | 0.0 | 0.00 | 0.00 | 0.00 | 27 | 1015.6 |
| 20260902101805 | 92 | 9 | 0.0 | 0.0 | 0.00 | 0.00 | 0.00 | 24 | 1015.6 |
| 20260902101305 | 92 | 196 | 0.0 | 0.0 | 0.00 | 0.00 | 0.00 | 24 | 1015.7 |
| 20260902100804 | 92 | 354 | 0.0 | 0.0 | 0.00 | 0.00 | 0.00 | 23 | 1015.7 |
| 20260902095804 | 92 | 340 | 0.0 | 0.0 | 0.00 | 0.00 | 0.00 | 24 | 1015.7 |
| 20260902095307 | 92 | 121 | 0.0 | 0.0 | 0.00 | 0.00 | 0.00 | 25 | 1015.7 |
| 20260902094805 | 91 | 25 | 0.0 | 0.0 | 0.00 | 0.00 | 0.00 | 25 | 1015.7 |
| 20260902094304 | 91 | 35 | 0.0 | 0.0 | 0.00 | 0.00 | 0.00 | 25 | 1015.7 |
| 20260902093805 | 90 | 123 | 0.0 | 0.0 | 0.00 | 0.00 | 0.00 | 27 | 1015.7 |
| 20260902093306 | 90 | 28 | 0.0 | 0.0 | 0.00 | 0.00 | 0.00 | 27 | 1015.7 |
| 20260902092805 | 90 | 295 | 0.0 | 0.0 | 0.00 | 0.00 | 0.00 | 27 | 1015.7 |
| 20260902092305 | 89 | 216 | 0.0 | 0.0 | 0.00 | 0.00 | 0.00 | 27 | 1015.7 |
| 20260902091805 | 89 | 100 | 0.0 | 0.0 | 0.00 | 0.00 | 0.00 | 27 | 1015.8 |
| 20260902091304 | 89 | 26 | 0.0 | 0.0 | 0.00 | 0.00 | 0.00 | 29 | 1015.7 |
| 20260902090805 | 89 | 358 | 0.0 | 0.0 | 0.00 | 0.00 | 0.00 | 31 | 1015.7 |
| 20260902090305 | 89 | 323 | 0.0 | 0.0 | 0.00 | 0.00 | 0.00 | 31 | 1015.8 |
| 20260902085306 | 88 | 60 | 0.0 | 0.0 | 0.00 | 0.00 | 0.00 | 31 | 1015.7 |
| 20260902084805 | 89 | 65 | 0.0 | 0.0 | 0.00 | 0.00 | 0.00 | 32 | 1015.7 |
| 20260902084304 | 88 | 35 | 0.0 | 0.0 | 0.00 | 0.00 | 0.00 | 32 | 1015.6 |
| 20260902083305 | 87 | 31 | 0.0 | 0.0 | 0.00 | 0.00 | 0.00 | 35 | 1015.5 |
| 20260902082804 | 86 | 133 | 0.0 | 0.0 | 0.00 | 0.00 | 0.00 | 37 | 1015.5 |
| 20260902082309 | 86 | 117 | 0.0 | 0.0 | 0.00 | 0.00 | 0.00 | 40 | 1015.4 |
| 20260902081805 | 85 | 127 | 0.0 | 0.0 | 0.00 | 0.00 | 0.00 | 41 | 1015.4 |
| 20260902081304 | 85 | 57 | 0.0 | 0.0 | 0.00 | 0.00 | 0.00 | 43 | 1015.4 |
| 20260902080804 | 84 | 45 | 0.0 | 0.0 | 0.00 | 0.00 | 0.00 | 44 | 1015.4 |
| 20260902080305 | 84 | 100 | 0.0 | 0.0 | 0.00 | 0.00 | 0.00 | 44 | 1015.4 |
| 20260902075805 | 83 | 19 | 0.0 | 0.0 | 0.00 | 0.00 | 0.00 | 44 | 1015.3 |
| 20260902075306 | 83 | 28 | 0.0 | 0.0 | 0.00 | 0.00 | 0.00 | 45 | 1015.1 |
| 20260902074805 | 83 | 15 | 0.0 | 0.0 | 0.00 | 0.00 | 0.00 | 46 | 1015.1 |
| 20260902074304 | 82 | 26 | 0.0 | 0.0 | 0.00 | 0.00 | 0.00 | 48 | 1015.1 |
| 20260902073804 | 82 | 81 | 0.0 | 0.0 | 0.00 | 0.00 | 0.00 | 48 | 1015.1 |
| 20260902073305 | 82 | 63 | 0.0 | 0.0 | 0.00 | 0.00 | 0.00 | 50 | 1015.1 |
| 20260902072805 | 81 | 332 | 0.0 | 0.0 | 0.00 | 0.00 | 0.00 | 51 | 1015.2 |
| 20260902072309 | 81 | 104 | 0.0 | 0.0 | 0.00 | 0.00 | 0.00 | 52 | 1015.2 |
| 20260902070805 | 80 | 73 | 0.0 | 0.0 | 0.00 | 0.00 | 0.00 | 54 | 1015.1 |
| 20260902070305 | 80 | 40 | 0.0 | 0.0 | 0.00 | 0.00 | 0.00 | 54 | 1015.2 |
| 20260902065306 | 80 | 38 | 0.0 | 0.0 | 0.00 | 0.00 | 0.00 | 56 | 1015.0 |
| 20260902063804 | 78 | 220 | 0.0 | 0.0 | 0.00 | 0.00 | 0.00 | 60 | 1014.8 |
| 20260902063305 | 78 | 57 | 0.0 | 0.0 | 0.00 | 0.00 | 0.00 | 62 | 1014.8 |
| 20260902062804 | 77 | 98 | 0.0 | 0.0 | 0.00 | 0.00 | 0.00 | 63 | 1014.9 |
| 20260902062306 | 77 | 43 | 0.0 | 0.0 | 0.00 | 0.00 | 0.00 | 64 | 1014.9 |
| 20260902061805 | 77 | 41 | 0.0 | 0.0 | 0.00 | 0.00 | 0.00 | 65 | 1014.8 |
| 20260902061304 | 76 | 35 | 0.0 | 0.0 | 0.00 | 0.00 | 0.00 | 65 | 1014.7 |
| 20260902060804 | 76 | 6 | 0.0 | 0.0 | 0.00 | 0.00 | 0.00 | 66 | 1014.6 |
| 20260902055307 | 75 | 347 | 0.0 | 0.0 | 0.00 | 0.00 | 0.00 | 68 | 1014.5 |
| 20260902054804 | 74 | 94 | 0.0 | 0.0 | 0.00 | 0.00 | 0.00 | 70 | 1014.5 |
| 20260902054304 | 74 | 188 | 0.0 | 0.0 | 0.00 | 0.00 | 0.00 | 71 | 1014.4 |
| 20260902053305 | 73 | 87 | 0.0 | 0.0 | 0.00 | 0.00 | 0.00 | 72 | 1014.4 |
| 20260902052805 | 73 | 359 | 0.0 | 0.0 | 0.00 | 0.00 | 0.00 | 72 | 1014.3 |
| 20260902052306 | 73 | 98 | 0.0 | 0.0 | 0.00 | 0.00 | 0.00 | 73 | 1014.2 |
| 20260902051804 | 73 | 153 | 0.0 | 0.0 | 0.00 | 0.00 | 0.00 | 73 | 1014.2 |
| 20260902050805 | 73 | 72 | 0.0 | 0.0 | 0.00 | 0.00 | 0.00 | 73 | 1014.3 |
| 20260902050304 | 73 | 30 | 0.0 | 0.0 | 0.00 | 0.00 | 0.00 | 74 | 1014.2 |
| 20260902045805 | 72 | 67 | 0.0 | 0.0 | 0.00 | 0.00 | 0.00 | 74 | 1014.3 |
| 20260902045306 | 72 | 100 | 0.0 | 0.0 | 0.00 | 0.00 | 0.00 | 75 | 1014.3 |
| 20260902044805 | 72 | 122 | 0.0 | 0.0 | 0.00 | 0.00 | 0.00 | 76 | 1014.3 |
| 20260902044304 | 72 | 116 | 0.0 | 0.0 | 0.00 | 0.00 | 0.00 | 76 | 1014.3 |
| 20260902043804 | 71 | 312 | 0.0 | 0.0 | 0.00 | 0.00 | 0.00 | 76 | 1014.2 |
| 20260902043304 | 71 | 212 | 0.0 | 0.0 | 0.00 | 0.00 | 0.00 | 75 | 1014.3 |
| 20260902042804 | 72 | 75 | 0.0 | 0.0 | 0.00 | 0.00 | 0.00 | 75 | 1014.3 |
| 20260902042308 | 72 | 74 | 0.0 | 0.0 | 0.00 | 0.00 | 0.00 | 75 | 1014.2 |
| 20260902041805 | 72 | 129 | 0.0 | 0.0 | 0.00 | 0.00 | 0.00 | 75 | 1014.3 |
| 20260902041304 | 72 | 35 | 0.0 | 0.0 | 0.00 | 0.00 | 0.00 | 74 | 1014.4 |
| 20260902040804 | 72 | 314 | 0.0 | 0.0 | 0.00 | 0.00 | 0.00 | 74 | 1014.3 |
| 20260902035804 | 72 | 186 | 0.0 | 0.0 | 0.00 | 0.00 | 0.00 | 73 | 1014.2 |
| 20260902035305 | 72 | 173 | 0.0 | 0.0 | 0.00 | 0.00 | 0.00 | 73 | 1014.2 |
| 20260902034804 | 73 | 97 | 0.0 | 0.0 | 0.00 | 0.00 | 0.00 | 73 | 1014.2 |
| 20260902034304 | 73 | 32 | 0.0 | 0.0 | 0.00 | 0.00 | 0.00 | 73 | 1014.1 |
| 20260902033804 | 73 | 238 | 0.0 | 0.0 | 0.00 | 0.00 | 0.00 | 72 | 1014.2 |
| 20260902033304 | 73 | 233 | 0.0 | 0.0 | 0.00 | 0.00 | 0.00 | 72 | 1014.2 |
| 20260902032804 | 73 | 12 | 0.0 | 0.0 | 0.00 | 0.00 | 0.00 | 73 | 1014.2 |
| 20260902032306 | 73 | 9 | 0.0 | 0.0 | 0.00 | 0.00 | 0.00 | 72 | 1014.2 |
| 20260902031804 | 73 | 9 | 0.0 | 0.0 | 0.00 | 0.00 | 0.00 | 72 | 1014.2 |
| 20260902031304 | 73 | 140 | 0.0 | 0.0 | 0.00 | 0.00 | 0.00 | 72 | 1014.3 |
| 20260902030804 | 73 | 11 | 0.0 | 0.0 | 0.00 | 0.00 | 0.00 | 73 | 1014.3 |
| 20260902030304 | 73 | 349 | 0.0 | 0.0 | 0.00 | 0.00 | 0.00 | 73 | 1014.3 |
| 20260902025804 | 72 | 347 | 0.0 | 0.0 | 0.00 | 0.00 | 0.00 | 73 | 1014.3 |
| 20260902025306 | 72 | 153 | 0.0 | 0.0 | 0.00 | 0.00 | 0.00 | 73 | 1014.4 |
| 20260902024804 | 72 | 188 | 0.0 | 0.0 | 0.00 | 0.00 | 0.00 | 74 | 1014.3 |
| 20260902024305 | 72 | 227 | 0.0 | 0.0 | 0.00 | 0.00 | 0.00 | 74 | 1014.3 |
| 20260902023305 | 73 | 230 | 0.0 | 0.0 | 0.00 | 0.00 | 0.00 | 73 | 1014.4 |
| 20260902022805 | 73 | 207 | 0.0 | 0.0 | 0.00 | 0.00 | 0.00 | 72 | 1014.4 |
| 20260902022306 | 73 | 355 | 0.0 | 0.0 | 0.00 | 0.00 | 0.00 | 72 | 1014.4 |
| 20260902021804 | 73 | 8 | 0.0 | 0.0 | 0.00 | 0.00 | 0.00 | 72 | 1014.3 |
| 20260902021304 | 73 | 42 | 0.0 | 0.0 | 0.00 | 0.00 | 0.00 | 72 | 1014.3 |
| 20260902020304 | 73 | 17 | 0.0 | 0.0 | 0.00 | 0.00 | 0.00 | 74 | 1014.4 |
| 20260902015804 | 73 | 27 | 0.0 | 0.0 | 0.00 | 0.00 | 0.00 | 75 | 1014.4 |
| 20260902015306 | 72 | 231 | 0.0 | 0.0 | 0.00 | 0.00 | 0.00 | 76 | 1014.4 |
| 20260902014804 | 72 | 18 | 0.0 | 0.0 | 0.00 | 0.00 | 0.00 | 76 | 1014.3 |
| 20260902014304 | 72 | 29 | 0.0 | 0.0 | 0.00 | 0.00 | 0.00 | 76 | 1014.3 |
| 20260902013304 | 72 | 148 | 0.0 | 0.0 | 0.00 | 0.00 | 0.00 | 77 | 1014.3 |
| 20260902012309 | 72 | 88 | 0.0 | 0.0 | 0.00 | 0.00 | 0.00 | 78 | 1014.4 |
| 20260902011804 | 72 | 156 | 0.0 | 0.0 | 0.00 | 0.00 | 0.00 | 79 | 1014.4 |
| 20260902011304 | 72 | 70 | 0.0 | 0.0 | 0.00 | 0.00 | 0.00 | 79 | 1014.5 |
| 20260902010804 | 72 | 75 | 0.0 | 0.0 | 0.00 | 0.00 | 0.00 | 79 | 1014.6 |
| 20260902010305 | 72 | 24 | 0.0 | 0.0 | 0.00 | 0.00 | 0.00 | 79 | 1014.6 |
| 20260902005804 | 72 | 229 | 0.0 | 0.0 | 0.00 | 0.00 | 0.00 | 79 | 1014.7 |
| 20260902004807 | 72 | 221 | 0.0 | 0.0 | 0.00 | 0.00 | 0.00 | 79 | 1014.7 |
| 20260902004307 | 72 | 222 | 0.0 | 0.0 | 0.00 | 0.00 | 0.00 | 79 | 1014.7 |
| 20260902003807 | 72 | 27 | 0.0 | 0.0 | 0.00 | 0.00 | 0.00 | 78 | 1014.7 |